Home   Weather   Larnaca   Past weeks
Flag for Cyprus

Past Weather in Larnaca, Cyprus — Yesterday and Last 2 Weeks

Now
70 °F

Clear.


Feels Like: 70 °F
Forecast: 83 / 66 °F
Wind: 7 mph from North

Location: Larnaca Airport

Current Time: Oct 20, 2019 at 3:48:53 am

Latest Report: Oct 20, 2019 at 3:00 am


Visibility: 10 mi

Pressure: 30.01 "Hg

Humidity: 73%

Dew Point: 61 °F

Location of LarnacaLocation

Past Weather in Larnaca — Graph

°F

Larnaca Temperature Yesterday

Maximum temperature yesterday: 84 °F (at 1:00 pm)
Minimum temperature yesterday: 66 °F (at 5:30 am)
Average temperature yesterday: 76 °F

High & Low Weather Summary for the Past Weeks

 TemperatureHumidityPressure
High93 °F (Oct 12, 12:00 pm)88% (Oct 8, 4:00 am)30.07 "Hg (Oct 8, 4:00 am)
Low64 °F (Oct 7, 3:00 am)23% (Oct 15, 2:30 pm)29.77 "Hg (Oct 6, 1:30 pm)
Average78 °F61%29.95 "Hg
* Reported Oct 5 2:00 am — Oct 20 2:30 am, Larnaca. Weather by CustomWeather, © 2019

Note: Actual official high and low records may vary slightly from our data, if they occured in-between our weather recording intervals... More about our weather records

Advertising

Larnaca Weather History for the Previous 24 Hours

Scroll right to see more
 ConditionsComfort  
Time TempWeatherWind HumidityBarometerVisibility
2:30 am
Sun, Oct 20
70 °FClear.7 mph78%30.01 "Hg10 mi
2:00 am70 °FPassing clouds.7 mph78%30.01 "HgN/A
1:30 am72 °FClear.7 mph78%30.01 "Hg10 mi
1:00 am72 °FPassing clouds.6 mph78%30.01 "HgN/A
12:30 am73 °FPassing clouds.6 mph74%30.01 "HgN/A
12:00 am73 °FClear.5 mph78%30.01 "Hg10 mi
11:30 pm
Sat, Oct 19
73 °FClear.9 mph78%30.01 "Hg10 mi
11:00 pm73 °FPassing clouds.3 mph78%30.01 "HgN/A
10:30 pm73 °FPassing clouds.6 mph83%30.01 "HgN/A
10:00 pm75 °FPassing clouds.8 mph78%30.01 "HgN/A
9:30 pm75 °FPassing clouds.8 mph78%30.01 "HgN/A
9:00 pm75 °FPassing clouds.9 mph78%30.01 "HgN/A
8:30 pm77 °FPassing clouds.8 mph74%30.01 "HgN/A
8:00 pm77 °FPassing clouds.8 mph74%30.01 "HgN/A
7:30 pm79 °FPassing clouds.8 mph70%30.01 "HgN/A
7:00 pm79 °FPassing clouds.5 mph70%30.01 "HgN/A
6:30 pm79 °FPassing clouds.7 mph70%29.98 "HgN/A
6:00 pm81 °FPassing clouds.10 mph70%29.98 "HgN/A
5:30 pm81 °FPassing clouds.10 mph70%29.98 "HgN/A
5:00 pm82 °FPassing clouds.10 mph66%29.98 "HgN/A
4:30 pm82 °FPassing clouds.12 mph62%29.98 "HgN/A
4:00 pm81 °FPassing clouds.9 mph66%29.98 "HgN/A
3:30 pm82 °FPassing clouds.8 mph55%29.98 "HgN/A
3:00 pm82 °FPassing clouds.10 mph55%29.98 "HgN/A
2:30 pm84 °FPassing clouds.14 mph45%29.98 "HgN/A
2:00 pm82 °FPassing clouds.15 mph58%29.98 "HgN/A
1:30 pm82 °FPassing clouds.13 mph62%29.98 "HgN/A
1:00 pm84 °FPassing clouds.14 mph58%30.01 "HgN/A
12:30 pm82 °FPassing clouds.12 mph62%30.01 "HgN/A
12:00 pm82 °FPassing clouds.10 mph62%30.01 "HgN/A
11:30 am82 °FPassing clouds.10 mph62%30.01 "HgN/A
11:00 am82 °FPassing clouds.8 mph62%30.01 "HgN/A
10:30 am82 °FPassing clouds.6 mph62%30.01 "HgN/A
10:00 am82 °FPassing clouds.2 mph62%30.04 "HgN/A
9:30 am81 °FPassing clouds.5 mph58%30.04 "HgN/A
9:00 am77 °FSunny.5 mph65%30.01 "Hg10 mi
8:30 am73 °FSunny.6 mph74%30.01 "Hg10 mi
8:00 am70 °FPassing clouds.5 mph78%30.01 "HgN/A
7:30 am68 °FPassing clouds.3 mph78%30.01 "HgN/A
7:00 am68 °FPassing clouds.6 mph78%30.01 "HgN/A
6:30 am68 °FPassing clouds.6 mph73%30.01 "HgN/A
6:00 am66 °FPassing clouds.6 mph78%30.01 "HgN/A
5:30 am66 °FPassing clouds.5 mph78%30.01 "HgN/A
5:00 am68 °FClear.3 mph78%30.01 "Hg10 mi
4:30 am68 °FClear.2 mph78%29.98 "Hg10 mi
4:00 am68 °FClear.2 mph78%29.98 "Hg10 mi
3:30 am70 °FClear.3 mph83%29.98 "Hg10 mi
3:00 am70 °FPassing clouds.5 mph83%29.98 "HgN/A
Weather by CustomWeather, © 2019

See weather overview